Regional Weather Roundup
Issued by NWS Little Rock, AR

Home | Current Version | Previous Version | Graphics & Text | Print | Product List | Glossary On
Versions: 1 2 3 4 5 6 7 8 9 10 11 12 13 14 15 16 17 18 19 20 21 22 23 24 25 26 27
000
ASUS44 KLZK 201605
RWRLZK

WEATHER ROUNDUP FOR ARKANSAS
NATIONAL WEATHER SERVICE LITTLE ROCK AR
1100 AM CDT SUN APR 20 2014

NOTE: "FAIR" INDICATES FEW OR NO CLOUDS BELOW 12,000 FEET WITH NO
SIGNIFICANT WEATHER AND/OR OBSTRUCTIONS TO VISIBILITY.

ARZ001-003-010-029-201700-
NORTHWEST ARKANSAS

CITY           SKY/WX    TMP DP  RH WIND       PRES   REMARKS
FAYETTEVILLE   MOSUNNY   71  52  50 S14       30.18F
FORT SMITH     MOSUNNY   74  56  53 VRB5      30.16F
HARRISON       MOSUNNY   73  49  42 S13       30.20S
BENTONVILLE    MOSUNNY   72  52  49 S12       30.19F
ROGERS         MOSUNNY   73  50  44 S14G22    30.19F
SILOAM SPGS    PTSUNNY   72  52  49 S13       30.19S
HIGHFILL       MOSUNNY   72  51  47 S13       30.17F
SPRINGDALE     MOSUNNY   72  52  49 SW9       30.20F
$$

ARZ004-005-016-201700-
NORTH CENTRAL ARKANSAS

CITY           SKY/WX    TMP DP  RH WIND       PRES   REMARKS
BATESVILLE     SUNNY     73  46  38 CALM      30.20S
FLIPPIN        SUNNY     72  48  43 E3        30.20F
MTN HOME       MOSUNNY   73  47  39 S6        30.19F
$$

ARZ040-041-201700-
WEST CENTRAL ARKANSAS

CITY           SKY/WX    TMP DP  RH WIND       PRES   REMARKS
MENA           PTSUNNY   72  54  53 CALM      30.20S
MOUNT IDA      MOSUNNY   74  54  49 SE8       30.16F
$$

ARZ009-017-025-026-028-201700-
NORTHEAST ARKANSAS

CITY           SKY/WX    TMP DP  RH WIND       PRES   REMARKS
CORNING        FAIR      72  45  37 CALM      30.22S
JONESBORO      MOSUNNY   71  48  43 CALM      30.21S
NEWPORT        SUNNY     72  48  42 VRB5      30.22S
WALNUT RIDGE   SUNNY     70  52  52 CALM      30.22S
BLYTHEVILLE    SUNNY     72  47  40 S10       30.21F
$$

ARZ022-023-033-042-044-201700-
CENTRAL ARKANSAS

CITY           SKY/WX    TMP DP  RH WIND       PRES   REMARKS
LITTLE ROCK    MOSUNNY   74  49  41 CALM      30.21S
N LITTLE ROCK  MOSUNNY   74  53  47 SW5       30.21S
JACKSONVILLE   SUNNY     74  51  42 S6        30.20F
SEARCY         SUNNY     74  50  42 VRB5      30.22S
HOT SPRINGS    MOSUNNY   74  54  49 VRB3      30.20S
RUSSELLVILLE   MOSUNNY   74  53  48 VRB3      30.19S
CLINTON        FAIR      73  54  49 SE6       30.20F
$$

ARZ036-201700-
EAST ARKANSAS

CITY           SKY/WX    TMP DP  RH WIND       PRES   REMARKS
WEST MEMPHIS   MOSUNNY   71  51  49 S13       30.21S
$$

ARZ050-053-066-070-073-201700-
SOUTHWEST ARKANSAS

CITY           SKY/WX    TMP DP  RH WIND       PRES   REMARKS
ARKADELPHIA    FAIR      72  56  57 CALM      30.20F
CAMDEN         MOSUNNY   75  54  46 MISG      30.20F
TEXARKANA      PTSUNNY   73  55  53 S10G16    30.18S
EL DORADO      MOSUNNY   73  53  49 SE5       30.20F
DE QUEEN       PTSUNNY   73  57  57 VRB5      30.16S
$$

ARZ056-057-069-201700-
SOUTHEAST ARKANSAS

CITY           SKY/WX    TMP DP  RH WIND       PRES   REMARKS
PINE BLUFF     SUNNY     73  53  49 CALM      30.21F
STUTTGART      SUNNY     73  48  40 CALM      30.22S
MONTICELLO     SUNNY     75  46  35 CALM      30.20F

$$





USA.gov is the U.S. government's official web portal to all federal, state and local government web resources and services.